Location: Moscow
(38.8570°N, 84.2291°W)
Time: 21:25:01
(UTC+00:00)

UKube-1 - Pass Details

Date: 17 March 2026
Orbit: 527 x 530 km, 98.4° (Epoch: 11 April)

Event Time Altitude Azimuth Distance (km) Brightness Sun altitude
Rises 10:49:03 0° 16° (NNE) 2,671 ? -11.7°
Reaches altitude 10° 10:51:10 10° 19° (NNE) 1,777 ? -11.3°
Maximum altitude 10:54:59 67° 102° (ESE) 576 ? -10.6°
Drops below altitude 10° 10:58:45 10° 185° (S) 1,762 ? -9.8°
Sets 11:00:51 0° 188° (S) 2,646 ? -9.4°
